DAL1670 KATL-KFLL

Flight info

Callsign DAL1670
Flight time 2h 15m
Altitude 37000
Route VRSTY3 NOKIE YANTI Q89 PRMUS CUUDA3
Aircraft B739/M-SDE2E3FGHIRWXY/LB1

Departure

Time 2026-05-03 21:35
Airport Hartsfield Jackson Atlanta International Airport (KATL)

Arrival

Time 2026-05-03 23:50
Airport Fort Lauderdale Hollywood International Airport (KFLL)
Time Latitude Longitude Altitude Speed Heading
2026-05-03 21:01 33.64190 -84.42883 1005 ft 0 kts 270°
2026-05-03 21:21 33.64190 -84.42866 1005 ft 4 kts 270°
2026-05-03 21:21 33.64192 -84.42834 1005 ft 4 kts 248°
2026-05-03 21:21 33.64207 -84.42811 1005 ft 4 kts 202°
2026-05-03 21:22 33.64225 -84.42807 1005 ft 1 kts 179°
2026-05-03 21:22 33.64228 -84.42807 1005 ft 0 kts 179°
2026-05-03 21:25 33.64226 -84.42807 1005 ft 2 kts 179°
2026-05-03 21:26 33.64170 -84.42806 1005 ft 13 kts 180°
2026-05-03 21:26 33.64058 -84.42806 1005 ft 17 kts 180°
2026-05-03 21:26 33.63944 -84.42805 1005 ft 16 kts 179°
2026-05-03 21:26 33.63834 -84.42804 1005 ft 15 kts 179°
2026-05-03 21:27 33.63729 -84.42807 1005 ft 15 kts 181°
2026-05-03 21:27 33.63659 -84.42751 1005 ft 13 kts 103°
2026-05-03 21:27 33.63654 -84.42635 1006 ft 17 kts 89°
2026-05-03 21:27 33.63654 -84.42486 1006 ft 18 kts 90°
2026-05-03 21:28 33.63655 -84.42341 1006 ft 17 kts 90°
2026-05-03 21:28 33.63651 -84.42202 1006 ft 17 kts 104°
2026-05-03 21:28 33.63597 -84.42082 1006 ft 17 kts 117°
2026-05-03 21:28 33.63581 -84.41926 1005 ft 21 kts 90°
2026-05-03 21:29 33.63581 -84.41749 1005 ft 21 kts 90°
2026-05-03 21:29 33.63580 -84.41573 1005 ft 21 kts 90°
2026-05-03 21:29 33.63580 -84.41403 1004 ft 20 kts 90°
2026-05-03 21:29 33.63580 -84.41238 1005 ft 19 kts 90°
2026-05-03 21:30 33.63580 -84.41080 1005 ft 19 kts 90°
2026-05-03 21:30 33.63580 -84.40928 1005 ft 17 kts 90°
2026-05-03 21:30 33.63580 -84.40816 1006 ft 8 kts 91°
2026-05-03 21:30 33.63568 -84.40766 1006 ft 0 kts 124°
2026-05-03 21:31 33.63567 -84.40764 1006 ft 2 kts 124°
2026-05-03 21:31 33.63523 -84.40741 1006 ft 13 kts 183°
2026-05-03 21:32 33.63472 -84.40816 1006 ft 10 kts 268°
2026-05-03 21:32 33.63472 -84.40824 1006 ft 0 kts 269°
2026-05-03 21:34 33.63470 -84.40950 1006 ft 45 kts 269°
2026-05-03 21:34 33.63470 -84.41606 1004 ft 111 kts 270°
2026-05-03 21:34 33.63471 -84.42757 1006 ft 163 kts 270°
2026-05-03 21:34 33.63472 -84.44230 1337 ft 178 kts 268°
2026-05-03 21:35 33.63466 -84.45738 1890 ft 189 kts 268°
2026-05-03 21:35 33.63460 -84.47343 2497 ft 192 kts 268°
2026-05-03 21:35 33.63461 -84.48942 3144 ft 195 kts 268°
2026-05-03 21:35 33.63462 -84.50623 3619 ft 208 kts 268°
2026-05-03 21:36 33.63465 -84.52417 3916 ft 228 kts 268°
2026-05-03 21:36 33.63458 -84.54383 4188 ft 249 kts 268°
2026-05-03 21:36 33.63453 -84.56548 4500 ft 273 kts 268°
2026-05-03 21:36 33.63433 -84.58865 5163 ft 280 kts 263°
2026-05-03 21:37 33.62783 -84.61010 5995 ft 275 kts 229°
2026-05-03 21:37 33.61281 -84.62362 6788 ft 273 kts 199°
2026-05-03 21:37 33.59420 -84.62750 7536 ft 274 kts 175°
2026-05-03 21:37 33.57568 -84.62229 8287 ft 276 kts 154°
2026-05-03 21:38 33.56028 -84.60884 9034 ft 278 kts 134°
2026-05-03 21:38 33.54707 -84.59186 9777 ft 282 kts 132°
2026-05-03 21:38 33.53396 -84.57411 10402 ft 291 kts 131°
2026-05-03 21:38 33.52003 -84.55507 10586 ft 315 kts 131°
2026-05-03 21:39 33.50505 -84.53466 10760 ft 337 kts 131°
2026-05-03 21:39 33.48917 -84.51312 11075 ft 352 kts 131°
2026-05-03 21:39 33.47276 -84.49097 11650 ft 358 kts 132°
2026-05-03 21:39 33.45611 -84.46861 12325 ft 360 kts 132°
2026-05-03 21:40 33.43943 -84.44625 12971 ft 363 kts 132°
2026-05-03 21:40 33.42247 -84.42356 13581 ft 366 kts 132°
2026-05-03 21:40 33.40537 -84.40073 14165 ft 370 kts 132°
2026-05-03 21:40 33.38810 -84.37771 14751 ft 373 kts 132°
2026-05-03 21:41 33.37092 -84.35480 15337 ft 376 kts 132°
2026-05-03 21:41 33.35337 -84.33144 15887 ft 380 kts 132°
2026-05-03 21:41 33.33568 -84.30789 16428 ft 383 kts 132°
2026-05-03 21:41 33.31784 -84.28417 16951 ft 386 kts 132°
2026-05-03 21:42 33.29977 -84.26016 17473 ft 389 kts 132°
2026-05-03 21:42 33.28160 -84.23601 17974 ft 392 kts 132°
2026-05-03 21:42 33.26332 -84.21175 18463 ft 395 kts 132°
2026-05-03 21:42 33.24484 -84.18724 18941 ft 398 kts 132°
2026-05-03 21:43 33.22629 -84.16265 19407 ft 401 kts 132°
2026-05-03 21:43 33.20755 -84.13782 19858 ft 404 kts 132°
2026-05-03 21:43 33.18870 -84.11286 20311 ft 407 kts 132°
2026-05-03 21:43 33.16992 -84.08801 20735 ft 409 kts 132°
2026-05-03 21:44 33.15076 -84.06268 21153 ft 412 kts 132°
2026-05-03 21:44 33.13151 -84.03724 21572 ft 415 kts 132°
2026-05-03 21:44 33.11211 -84.01163 21981 ft 417 kts 132°
2026-05-03 21:44 33.09258 -83.98597 22364 ft 420 kts 133°
2026-05-03 21:45 33.07096 -83.96236 22728 ft 422 kts 143°
2026-05-03 21:45 33.04692 -83.94206 23112 ft 424 kts 145°
2026-05-03 21:45 33.02254 -83.92211 23472 ft 427 kts 145°
2026-05-03 21:45 32.99800 -83.90207 23803 ft 430 kts 145°
2026-05-03 21:46 32.97326 -83.88175 24111 ft 433 kts 145°
2026-05-03 21:46 32.94844 -83.86121 24433 ft 435 kts 145°
2026-05-03 21:46 32.92384 -83.84076 24765 ft 437 kts 145°
2026-05-03 21:46 32.89887 -83.81994 25087 ft 439 kts 145°
2026-05-03 21:47 32.87376 -83.79900 25418 ft 441 kts 145°
2026-05-03 21:47 32.84860 -83.77802 25742 ft 443 kts 145°
2026-05-03 21:47 32.82332 -83.75697 26038 ft 445 kts 145°
2026-05-03 21:47 32.79794 -83.73584 26318 ft 448 kts 145°
2026-05-03 21:48 32.77235 -83.71457 26606 ft 450 kts 145°
2026-05-03 21:48 32.74666 -83.69321 26892 ft 451 kts 145°
2026-05-03 21:48 32.72094 -83.67186 27178 ft 453 kts 145°
2026-05-03 21:48 32.69499 -83.65033 27421 ft 455 kts 145°
2026-05-03 21:49 32.66920 -83.62850 27674 ft 457 kts 143°
2026-05-03 21:49 32.64350 -83.60594 27922 ft 459 kts 143°
2026-05-03 21:49 32.61792 -83.58315 28167 ft 461 kts 143°
2026-05-03 21:49 32.59266 -83.56055 28375 ft 464 kts 150°
2026-05-03 21:50 32.56649 -83.53729 28356 ft 475 kts 152°
2026-05-03 21:50 32.53979 -83.51368 28431 ft 484 kts 152°
2026-05-03 21:50 32.51251 -83.48959 28604 ft 490 kts 151°
2026-05-03 21:50 32.48541 -83.46562 29212 ft 484 kts 151°
2026-05-03 21:51 32.45855 -83.44189 29721 ft 481 kts 152°
2026-05-03 21:51 32.43173 -83.41825 30057 ft 482 kts 152°
2026-05-03 21:51 32.40470 -83.39451 30338 ft 484 kts 152°
2026-05-03 21:51 32.37777 -83.37083 30748 ft 482 kts 152°
2026-05-03 21:52 32.35093 -83.34725 31243 ft 478 kts 152°
2026-05-03 21:52 32.32427 -83.32383 31664 ft 476 kts 153°
2026-05-03 21:52 32.29769 -83.30055 31959 ft 477 kts 153°
2026-05-03 21:52 32.27133 -83.27750 32262 ft 477 kts 153°
2026-05-03 21:53 32.24470 -83.25423 32613 ft 475 kts 153°
2026-05-03 21:53 32.21829 -83.23113 33024 ft 473 kts 153°
2026-05-03 21:53 32.19186 -83.20802 33428 ft 470 kts 153°
2026-05-03 21:53 32.16565 -83.18514 33740 ft 469 kts 154°
2026-05-03 21:54 32.13948 -83.16231 34010 ft 469 kts 154°
2026-05-03 21:54 32.11334 -83.13953 34325 ft 467 kts 154°
2026-05-03 21:54 32.08711 -83.11669 34596 ft 467 kts 154°
2026-05-03 21:54 32.06132 -83.09425 34846 ft 467 kts 154°
2026-05-03 21:55 32.03525 -83.07157 35146 ft 465 kts 155°
2026-05-03 21:55 32.00923 -83.04896 35382 ft 465 kts 155°
2026-05-03 21:55 31.98319 -83.02633 35617 ft 464 kts 155°
2026-05-03 21:55 31.95727 -83.00383 35899 ft 463 kts 156°
2026-05-03 21:56 31.93139 -82.98137 36135 ft 461 kts 156°
2026-05-03 21:56 31.90539 -82.95888 36102 ft 465 kts 156°
2026-05-03 21:56 31.85338 -82.91388 36110 ft 469 kts 156°
2026-05-03 21:57 31.80093 -82.86845 36122 ft 468 kts 156°
2026-05-03 21:57 31.74908 -82.82179 36120 ft 472 kts 153°
2026-05-03 21:58 31.69835 -82.77294 36122 ft 472 kts 153°
2026-05-03 21:58 31.64768 -82.72410 36120 ft 471 kts 153°
2026-05-03 21:59 31.59681 -82.67562 36124 ft 471 kts 154°
2026-05-03 21:59 31.54585 -82.62739 36123 ft 471 kts 154°
2026-05-03 22:00 31.49516 -82.57954 36125 ft 471 kts 154°
2026-05-03 22:00 31.44409 -82.53139 36120 ft 471 kts 154°
2026-05-03 22:01 31.39310 -82.48337 36120 ft 471 kts 154°
2026-05-03 22:01 31.34191 -82.43520 36122 ft 472 kts 154°
2026-05-03 22:02 31.29114 -82.38750 36125 ft 472 kts 154°
2026-05-03 22:02 31.23998 -82.33951 36118 ft 472 kts 154°
2026-05-03 22:03 31.18874 -82.29152 36125 ft 472 kts 154°
2026-05-03 22:03 31.13753 -82.24363 36119 ft 472 kts 154°
2026-05-03 22:04 31.08626 -82.19572 36118 ft 472 kts 154°
2026-05-03 22:04 31.03495 -82.14787 36121 ft 472 kts 154°
2026-05-03 22:05 30.98363 -82.10006 36116 ft 472 kts 154°
2026-05-03 22:05 30.93268 -82.05267 36125 ft 472 kts 154°
2026-05-03 22:06 30.88136 -82.00501 36119 ft 472 kts 154°
2026-05-03 22:06 30.83006 -81.95742 36123 ft 471 kts 154°
2026-05-03 22:07 30.77877 -81.90991 36119 ft 471 kts 155°
2026-05-03 22:07 30.72748 -81.86246 36110 ft 471 kts 155°
2026-05-03 22:08 30.67619 -81.81509 36113 ft 471 kts 155°
2026-05-03 22:08 30.62487 -81.76776 36111 ft 470 kts 155°
2026-05-03 22:09 30.57237 -81.72365 36113 ft 463 kts 159°
2026-05-03 22:10 30.49295 -81.66085 36110 ft 463 kts 159°
2026-05-03 22:10 30.43999 -81.61853 36109 ft 463 kts 159°
2026-05-03 22:11 30.38708 -81.57599 36115 ft 463 kts 159°
2026-05-03 22:11 30.33420 -81.53349 36116 ft 463 kts 159°
2026-05-03 22:12 30.28129 -81.49106 36118 ft 463 kts 159°
2026-05-03 22:12 30.22906 -81.44908 36102 ft 446 kts 159°
2026-05-03 22:13 30.17876 -81.40887 36109 ft 439 kts 160°
2026-05-03 22:13 30.12834 -81.36879 35855 ft 447 kts 159°
2026-05-03 22:13 30.10275 -81.34842 35638 ft 448 kts 159°
2026-05-03 22:14 30.07720 -81.32803 35376 ft 445 kts 159°
2026-05-03 22:14 30.05182 -81.30774 35120 ft 443 kts 159°
2026-05-03 22:14 30.02641 -81.28748 34878 ft 444 kts 159°
2026-05-03 22:14 30.00104 -81.26730 34635 ft 444 kts 159°
2026-05-03 22:15 29.97549 -81.24699 34386 ft 445 kts 159°
2026-05-03 22:15 29.95005 -81.22680 34187 ft 446 kts 159°
2026-05-03 22:15 29.92439 -81.20644 34150 ft 448 kts 159°
2026-05-03 22:15 29.89947 -81.18397 34130 ft 465 kts 151°
2026-05-03 22:16 29.87539 -81.15962 34138 ft 467 kts 151°
2026-05-03 22:16 29.82639 -81.11071 34118 ft 465 kts 152°
2026-05-03 22:17 29.77729 -81.06290 34106 ft 454 kts 158°
2026-05-03 22:17 29.75073 -81.04530 34132 ft 429 kts 171°
2026-05-03 22:17 29.72310 -81.03347 34125 ft 421 kts 174°
2026-05-03 22:18 29.66798 -81.01061 34111 ft 422 kts 173°
2026-05-03 22:18 29.61289 -80.98710 34111 ft 423 kts 173°
2026-05-03 22:19 29.56699 -80.96724 34114 ft 425 kts 173°
2026-05-03 22:19 29.50265 -80.93930 34114 ft 426 kts 172°
2026-05-03 22:20 29.44714 -80.91521 34111 ft 428 kts 172°
2026-05-03 22:20 29.39138 -80.89105 34105 ft 429 kts 172°
2026-05-03 22:21 29.34481 -80.87090 34101 ft 430 kts 172°
2026-05-03 22:21 29.28877 -80.84667 34102 ft 431 kts 172°
2026-05-03 22:22 29.22355 -80.81850 34098 ft 432 kts 172°
2026-05-03 22:22 29.17677 -80.79833 34089 ft 432 kts 172°
2026-05-03 22:23 29.12054 -80.77411 34093 ft 431 kts 172°
2026-05-03 22:23 29.06436 -80.74993 34093 ft 431 kts 172°
2026-05-03 22:24 29.00848 -80.72590 34085 ft 430 kts 172°
2026-05-03 22:24 28.95247 -80.70177 34082 ft 430 kts 172°
2026-05-03 22:25 28.89711 -80.67704 34074 ft 430 kts 171°
2026-05-03 22:25 28.84152 -80.65199 34072 ft 430 kts 172°
2026-05-03 22:26 28.78594 -80.62706 34064 ft 429 kts 172°
2026-05-03 22:26 28.73027 -80.60220 34067 ft 429 kts 172°
2026-05-03 22:27 28.67473 -80.57744 34067 ft 429 kts 172°
2026-05-03 22:27 28.61917 -80.55271 34056 ft 430 kts 172°
2026-05-03 22:28 28.56382 -80.52808 34056 ft 430 kts 172°
2026-05-03 22:28 28.50802 -80.50331 33844 ft 433 kts 171°
2026-05-03 22:28 28.47996 -80.49086 33594 ft 432 kts 171°
2026-05-03 22:29 28.45201 -80.47843 33344 ft 431 kts 171°
2026-05-03 22:29 28.42410 -80.46602 33100 ft 430 kts 171°
2026-05-03 22:29 28.39630 -80.45369 32856 ft 430 kts 171°
2026-05-03 22:29 28.36849 -80.44137 32604 ft 429 kts 171°
2026-05-03 22:30 28.34059 -80.42903 32360 ft 429 kts 170°
2026-05-03 22:30 28.31280 -80.41674 32128 ft 429 kts 170°
2026-05-03 22:30 28.28500 -80.40445 31868 ft 429 kts 170°
2026-05-03 22:30 28.25713 -80.39214 31619 ft 429 kts 170°
2026-05-03 22:31 28.22937 -80.37988 31373 ft 429 kts 169°
2026-05-03 22:31 28.20189 -80.36774 31130 ft 428 kts 169°
2026-05-03 22:31 28.17419 -80.35550 30881 ft 427 kts 169°
2026-05-03 22:31 28.14656 -80.34330 30611 ft 426 kts 169°
2026-05-03 22:32 28.11900 -80.33115 30379 ft 424 kts 169°
2026-05-03 22:32 28.09158 -80.31907 30127 ft 421 kts 169°
2026-05-03 22:32 28.06432 -80.30775 29875 ft 416 kts 171°
2026-05-03 22:32 28.03702 -80.29708 29624 ft 412 kts 171°
2026-05-03 22:33 28.01003 -80.28676 29372 ft 409 kts 171°
2026-05-03 22:33 27.98316 -80.27648 29121 ft 407 kts 171°
2026-05-03 22:33 27.95640 -80.26619 28868 ft 405 kts 171°
2026-05-03 22:33 27.92984 -80.25593 28617 ft 403 kts 171°
2026-05-03 22:34 27.90367 -80.24577 28375 ft 402 kts 171°
2026-05-03 22:34 27.87735 -80.23552 28123 ft 401 kts 171°
2026-05-03 22:34 27.85097 -80.22524 27873 ft 400 kts 170°
2026-05-03 22:34 27.82473 -80.21503 27621 ft 399 kts 170°
2026-05-03 22:35 27.79847 -80.20479 27369 ft 398 kts 170°
2026-05-03 22:35 27.77225 -80.19459 27127 ft 398 kts 170°
2026-05-03 22:35 27.74610 -80.18441 26878 ft 398 kts 170°
2026-05-03 22:35 27.71995 -80.17424 26628 ft 397 kts 170°
2026-05-03 22:36 27.69388 -80.16410 26381 ft 396 kts 169°
2026-05-03 22:36 27.66788 -80.15398 26125 ft 392 kts 169°
2026-05-03 22:36 27.64247 -80.14411 25879 ft 392 kts 169°
2026-05-03 22:36 27.61633 -80.13396 25628 ft 394 kts 169°
2026-05-03 22:37 27.59081 -80.12366 25387 ft 394 kts 168°
2026-05-03 22:37 27.56513 -80.11301 25141 ft 393 kts 168°
2026-05-03 22:37 27.53950 -80.10234 24887 ft 393 kts 168°
2026-05-03 22:37 27.51387 -80.09168 24635 ft 392 kts 168°
2026-05-03 22:38 27.48823 -80.08107 24389 ft 391 kts 168°
2026-05-03 22:38 27.46274 -80.07055 24150 ft 390 kts 168°
2026-05-03 22:38 27.43722 -80.06005 24084 ft 390 kts 167°
2026-05-03 22:38 27.41171 -80.04956 24055 ft 390 kts 167°
2026-05-03 22:39 27.38627 -80.03912 24054 ft 388 kts 168°
2026-05-03 22:39 27.36071 -80.03009 24052 ft 385 kts 172°
2026-05-03 22:39 27.33484 -80.02247 24062 ft 384 kts 173°
2026-05-03 22:39 27.30892 -80.01501 24061 ft 385 kts 173°
2026-05-03 22:40 27.28332 -80.00741 24054 ft 386 kts 172°
2026-05-03 22:40 27.25733 -79.99951 24052 ft 387 kts 172°
2026-05-03 22:40 27.23127 -79.99089 23500 ft 395 kts 169°
2026-05-03 22:40 27.20521 -79.98133 23073 ft 392 kts 169°
2026-05-03 22:41 27.17939 -79.97166 22588 ft 390 kts 169°
2026-05-03 22:41 27.15371 -79.96213 22114 ft 386 kts 169°
2026-05-03 22:41 27.12829 -79.95284 21646 ft 383 kts 169°
2026-05-03 22:41 27.10301 -79.94369 21166 ft 380 kts 169°
2026-05-03 22:42 27.07797 -79.93467 20718 ft 377 kts 169°
2026-05-03 22:42 27.05315 -79.92550 20262 ft 375 kts 167°
2026-05-03 22:42 27.02868 -79.91572 19807 ft 373 kts 167°
2026-05-03 22:42 27.00421 -79.90566 19350 ft 371 kts 166°
2026-05-03 22:43 26.98009 -79.89574 18901 ft 368 kts 166°
2026-05-03 22:43 26.95607 -79.88593 18465 ft 366 kts 166°
2026-05-03 22:43 26.93262 -79.87641 18011 ft 363 kts 166°
2026-05-03 22:43 26.90889 -79.86682 17578 ft 361 kts 166°
2026-05-03 22:44 26.88532 -79.85732 17140 ft 358 kts 166°
2026-05-03 22:44 26.86200 -79.84793 16706 ft 356 kts 166°
2026-05-03 22:44 26.83876 -79.83858 16275 ft 354 kts 166°
2026-05-03 22:44 26.81566 -79.82929 15846 ft 352 kts 166°
2026-05-03 22:45 26.79261 -79.82003 15418 ft 350 kts 166°
2026-05-03 22:45 26.76983 -79.81086 14976 ft 345 kts 166°
2026-05-03 22:45 26.74766 -79.80192 14550 ft 335 kts 166°
2026-05-03 22:45 26.72628 -79.79332 14148 ft 326 kts 166°
2026-05-03 22:46 26.70494 -79.78676 13735 ft 309 kts 182°
2026-05-03 22:46 26.68443 -79.78899 13429 ft 292 kts 198°
2026-05-03 22:46 26.66521 -79.79581 13073 ft 289 kts 204°
2026-05-03 22:46 26.64637 -79.80389 12726 ft 288 kts 205°
2026-05-03 22:47 26.62770 -79.81200 12375 ft 288 kts 205°
2026-05-03 22:47 26.60897 -79.81991 12020 ft 289 kts 204°
2026-05-03 22:47 26.59013 -79.82768 11668 ft 289 kts 204°
2026-05-03 22:47 26.57126 -79.83540 11322 ft 289 kts 203°
2026-05-03 22:48 26.55241 -79.84310 10973 ft 288 kts 204°
2026-05-03 22:48 26.53395 -79.85141 10640 ft 286 kts 206°
2026-05-03 22:48 26.51589 -79.86031 10642 ft 280 kts 212°
2026-05-03 22:48 26.50216 -79.87509 10660 ft 277 kts 240°
2026-05-03 22:49 26.49363 -79.89419 10664 ft 280 kts 237°
2026-05-03 22:49 26.47983 -79.90921 10665 ft 281 kts 211°
2026-05-03 22:49 26.46108 -79.91568 10644 ft 287 kts 186°
2026-05-03 22:49 26.44128 -79.91210 10650 ft 295 kts 160°
2026-05-03 22:50 26.42430 -79.89898 10656 ft 304 kts 135°
2026-05-03 22:50 26.41354 -79.87860 10651 ft 311 kts 109°
2026-05-03 22:50 26.41117 -79.85451 10659 ft 316 kts 84°
2026-05-03 22:50 26.41772 -79.83117 10656 ft 317 kts 61°
2026-05-03 22:51 26.42923 -79.81019 10651 ft 319 kts 52°
2026-05-03 22:51 26.44525 -79.79334 10648 ft 316 kts 27°
2026-05-03 22:51 26.46514 -79.78405 10669 ft 314 kts 14°
2026-05-03 22:51 26.48607 -79.77710 10650 ft 314 kts 11°
2026-05-03 22:52 26.50777 -79.77293 10743 ft 311 kts
2026-05-03 22:52 26.52897 -79.77021 11026 ft 313 kts
2026-05-03 22:52 26.55066 -79.76761 11012 ft 311 kts
2026-05-03 22:52 26.57203 -79.76506 11011 ft 310 kts
2026-05-03 22:53 26.59356 -79.76259 11015 ft 309 kts 359°
2026-05-03 22:53 26.61426 -79.76600 11036 ft 299 kts 338°
2026-05-03 22:53 26.63489 -79.77017 11002 ft 307 kts 358°
2026-05-03 22:53 26.65618 -79.76789 11015 ft 310 kts
2026-05-03 22:54 26.67764 -79.76442 11024 ft 311 kts
2026-05-03 22:54 26.69881 -79.75930 11020 ft 313 kts 11°
2026-05-03 22:54 26.71992 -79.75479 11004 ft 310 kts 355°
2026-05-03 22:54 26.74072 -79.75953 11014 ft 297 kts 328°
2026-05-03 22:55 26.75543 -79.77415 11019 ft 285 kts 297°
2026-05-03 22:55 26.76064 -79.79478 11026 ft 277 kts 265°
2026-05-03 22:55 26.75479 -79.81490 11028 ft 276 kts 234°
2026-05-03 22:55 26.73970 -79.82814 11025 ft 283 kts 202°
2026-05-03 22:56 26.72002 -79.83013 11018 ft 294 kts 171°
2026-05-03 22:56 26.70158 -79.81984 11023 ft 306 kts 140°
2026-05-03 22:56 26.68964 -79.79991 11031 ft 316 kts 112°
2026-05-03 22:56 26.68607 -79.77588 11018 ft 322 kts 87°
2026-05-03 22:57 26.69198 -79.75164 11008 ft 323 kts 59°
2026-05-03 22:57 26.70404 -79.73093 11016 ft 323 kts 49°
2026-05-03 22:57 26.72117 -79.71513 11022 ft 317 kts 23°
2026-05-03 22:57 26.74201 -79.70854 11016 ft 310 kts 358°
2026-05-03 22:58 26.76282 -79.71201 11017 ft 300 kts 333°
2026-05-03 22:58 26.77980 -79.72463 11022 ft 290 kts 308°
2026-05-03 22:58 26.78981 -79.74363 11018 ft 283 kts 283°
2026-05-03 22:58 26.79109 -79.76524 11017 ft 278 kts 258°
2026-05-03 22:59 26.78349 -79.78488 11016 ft 278 kts 233°
2026-05-03 22:59 26.76832 -79.79814 11009 ft 285 kts 203°
2026-05-03 22:59 26.74857 -79.80022 11018 ft 295 kts 172°
2026-05-03 22:59 26.72915 -79.79211 11036 ft 300 kts 162°
2026-05-03 23:00 26.70910 -79.78762 11018 ft 291 kts 186°
2026-05-03 23:00 26.68951 -79.79053 11021 ft 288 kts 194°
2026-05-03 23:00 26.66979 -79.79492 11017 ft 289 kts 195°
2026-05-03 23:00 26.65043 -79.80077 11020 ft 288 kts 200°
2026-05-03 23:01 26.63137 -79.80756 11020 ft 288 kts 202°
2026-05-03 23:01 26.61223 -79.81411 11007 ft 290 kts 194°
2026-05-03 23:01 26.59274 -79.81965 11013 ft 287 kts 203°
2026-05-03 23:01 26.57420 -79.82761 11021 ft 286 kts 204°
2026-05-03 23:02 26.55561 -79.83568 11012 ft 286 kts 204°
2026-05-03 23:02 26.53712 -79.84358 11011 ft 286 kts 200°
2026-05-03 23:02 26.51731 -79.84552 11012 ft 293 kts 171°
2026-05-03 23:02 26.49896 -79.83520 11016 ft 304 kts 140°
2026-05-03 23:03 26.48768 -79.81556 11022 ft 312 kts 108°
2026-05-03 23:03 26.48660 -79.79138 11026 ft 318 kts 77°
2026-05-03 23:03 26.49246 -79.76759 11037 ft 320 kts 75°
2026-05-03 23:03 26.49557 -79.74311 11003 ft 320 kts 97°
2026-05-03 23:04 26.49171 -79.71885 11026 ft 320 kts 99°
2026-05-03 23:04 26.49329 -79.69412 11022 ft 323 kts 73°
2026-05-03 23:04 26.50369 -79.67199 11015 ft 323 kts 48°
2026-05-03 23:04 26.52079 -79.65609 11031 ft 320 kts 29°
2026-05-03 23:05 26.54011 -79.64387 11018 ft 320 kts 22°
2026-05-03 23:05 26.56124 -79.63738 11014 ft 312 kts 358°
2026-05-03 23:05 26.58220 -79.64080 11026 ft 302 kts 337°
2026-05-03 23:05 26.60152 -79.64911 11022 ft 301 kts 333°
2026-05-03 23:06 26.62081 -79.65823 11013 ft 301 kts 333°
2026-05-03 23:06 26.64004 -79.66748 11012 ft 301 kts 332°
2026-05-03 23:06 26.65932 -79.67667 11007 ft 301 kts 336°
2026-05-03 23:06 26.67999 -79.68063 11026 ft 306 kts 356°
2026-05-03 23:07 26.70135 -79.68035 11019 ft 307 kts 357°
2026-05-03 23:07 26.72236 -79.68237 11000 ft 300 kts 338°
2026-05-03 23:07 26.74017 -79.69331 11022 ft 289 kts 313°
2026-05-03 23:07 26.75141 -79.71117 11019 ft 280 kts 287°
2026-05-03 23:08 26.75429 -79.73237 11030 ft 275 kts 265°
2026-05-03 23:08 26.74932 -79.75282 11014 ft 275 kts 240°
2026-05-03 23:08 26.73691 -79.76870 11031 ft 278 kts 222°
2026-05-03 23:08 26.72155 -79.78210 11021 ft 281 kts 219°
2026-05-03 23:09 26.70541 -79.79411 10985 ft 276 kts 206°
2026-05-03 23:09 26.68710 -79.79796 11006 ft 266 kts 179°
2026-05-03 23:09 26.66952 -79.79281 11025 ft 261 kts 162°
2026-05-03 23:09 26.65322 -79.78310 11031 ft 268 kts 158°
2026-05-03 23:10 26.63544 -79.77823 11021 ft 261 kts 187°
2026-05-03 23:10 26.61768 -79.78139 11025 ft 260 kts 197°
2026-05-03 23:10 26.60020 -79.78616 11017 ft 258 kts 198°
2026-05-03 23:10 26.58280 -79.79089 11008 ft 258 kts 192°
2026-05-03 23:11 26.56481 -79.78929 11020 ft 265 kts 163°
2026-05-03 23:11 26.54928 -79.77805 11011 ft 274 kts 135°
2026-05-03 23:11 26.53982 -79.75940 11025 ft 284 kts 107°
2026-05-03 23:11 26.53870 -79.73741 11025 ft 294 kts 79°
2026-05-03 23:12 26.54644 -79.71625 11032 ft 298 kts 52°
2026-05-03 23:12 26.56141 -79.70080 11016 ft 291 kts 27°
2026-05-03 23:12 26.57918 -79.69054 11018 ft 286 kts 22°
2026-05-03 23:12 26.59721 -79.68111 11012 ft 285 kts 21°
2026-05-03 23:13 26.61519 -79.67184 11012 ft 285 kts 21°
2026-05-03 23:13 26.63322 -79.66258 11011 ft 285 kts 21°
2026-05-03 23:13 26.65121 -79.65338 11013 ft 285 kts 21°
2026-05-03 23:13 26.66927 -79.64415 11014 ft 285 kts 21°
2026-05-03 23:14 26.68707 -79.63507 11018 ft 285 kts 21°
2026-05-03 23:14 26.70528 -79.62577 11016 ft 285 kts 20°
2026-05-03 23:14 26.72387 -79.62044 11008 ft 276 kts 354°
2026-05-03 23:14 26.74199 -79.62489 11018 ft 264 kts 327°
2026-05-03 23:15 26.75542 -79.63791 11020 ft 253 kts 298°
2026-05-03 23:15 26.76146 -79.65590 11035 ft 247 kts 277°
2026-05-03 23:15 26.76395 -79.67499 11023 ft 249 kts 275°
2026-05-03 23:15 26.76510 -79.69432 11008 ft 249 kts 262°
2026-05-03 23:16 26.76098 -79.71294 11024 ft 249 kts 250°
2026-05-03 23:16 26.75251 -79.72989 11030 ft 250 kts 234°
2026-05-03 23:16 26.74181 -79.74527 11019 ft 252 kts 233°
2026-05-03 23:16 26.73071 -79.76060 11020 ft 253 kts 232°
2026-05-03 23:17 26.71907 -79.77516 11003 ft 254 kts 220°
2026-05-03 23:17 26.70394 -79.78500 11023 ft 256 kts 206°
2026-05-03 23:17 26.68711 -79.79157 11028 ft 257 kts 201°
2026-05-03 23:17 26.67006 -79.79774 11016 ft 257 kts 201°
2026-05-03 23:18 26.65307 -79.80385 11018 ft 257 kts 201°
2026-05-03 23:18 26.63605 -79.80994 11017 ft 256 kts 201°
2026-05-03 23:18 26.61907 -79.81603 11018 ft 256 kts 201°
2026-05-03 23:18 26.60211 -79.82210 11018 ft 256 kts 201°
2026-05-03 23:19 26.58517 -79.82818 11018 ft 256 kts 201°
2026-05-03 23:19 26.56826 -79.83426 11018 ft 255 kts 201°
2026-05-03 23:19 26.55156 -79.84026 11019 ft 255 kts 201°
2026-05-03 23:19 26.53432 -79.84592 11013 ft 257 kts 192°
2026-05-03 23:20 26.51664 -79.84420 11029 ft 265 kts 163°
2026-05-03 23:20 26.50085 -79.83256 11026 ft 275 kts 135°
2026-05-03 23:20 26.49161 -79.81407 11029 ft 283 kts 107°
2026-05-03 23:20 26.49066 -79.79202 11020 ft 289 kts 78°
2026-05-03 23:21 26.49853 -79.77167 11027 ft 289 kts 51°
2026-05-03 23:21 26.51354 -79.75712 11036 ft 286 kts 26°
2026-05-03 23:21 26.53111 -79.74658 11027 ft 288 kts 22°
2026-05-03 23:21 26.54971 -79.73837 11020 ft 287 kts 13°
2026-05-03 23:22 26.58881 -79.73509 11017 ft 280 kts 347°
2026-05-03 23:22 26.60774 -79.73939 11022 ft 277 kts 340°
2026-05-03 23:22 26.62638 -79.74476 11005 ft 279 kts 351°
2026-05-03 23:23 26.64583 -79.74291 11041 ft 281 kts
2026-05-03 23:23 26.66461 -79.74511 11014 ft 266 kts 328°
2026-05-03 23:23 26.67894 -79.75679 11032 ft 259 kts 315°
2026-05-03 23:23 26.69335 -79.76912 11020 ft 263 kts 322°
2026-05-03 23:24 26.70922 -79.77946 11021 ft 266 kts 328°
2026-05-03 23:24 26.72710 -79.78532 10999 ft 276 kts 358°
2026-05-03 23:24 26.74583 -79.78028 11039 ft 283 kts 18°
2026-05-03 23:24 26.76415 -79.77191 11017 ft 285 kts 19°
2026-05-03 23:25 26.78252 -79.76354 11017 ft 286 kts 18°
2026-05-03 23:25 26.80105 -79.75526 11019 ft 286 kts 18°
2026-05-03 23:25 26.81848 -79.74432 10991 ft 292 kts 43°
2026-05-03 23:25 26.82934 -79.72544 11026 ft 292 kts 72°
2026-05-03 23:26 26.83152 -79.70312 11018 ft 289 kts 101°
2026-05-03 23:26 26.82501 -79.68236 11023 ft 282 kts 128°
2026-05-03 23:26 26.81149 -79.66720 11046 ft 284 kts 153°
2026-05-03 23:26 26.79239 -79.65945 11026 ft 293 kts 179°
2026-05-03 23:27 26.77274 -79.66177 11022 ft 287 kts 204°
2026-05-03 23:27 26.75636 -79.67360 11012 ft 280 kts 230°
2026-05-03 23:27 26.74619 -79.69185 11021 ft 277 kts 250°
2026-05-03 23:27 26.74271 -79.71290 11028 ft 277 kts 263°
2026-05-03 23:28 26.74010 -79.73420 11016 ft 277 kts 260°
2026-05-03 23:28 26.73597 -79.75519 10996 ft 277 kts 245°
2026-05-03 23:28 26.72418 -79.77209 11036 ft 278 kts 224°
2026-05-03 23:28 26.70819 -79.78432 11016 ft 283 kts 206°
2026-05-03 23:29 26.68969 -79.79190 11022 ft 286 kts 201°
2026-05-03 23:29 26.67103 -79.79870 11017 ft 287 kts 201°
2026-05-03 23:29 26.65201 -79.80560 11019 ft 287 kts 201°
2026-05-03 23:29 26.63320 -79.81252 10986 ft 282 kts 201°
2026-05-03 23:30 26.61486 -79.81937 10876 ft 274 kts 202°
2026-05-03 23:30 26.59696 -79.82613 10605 ft 271 kts 202°
2026-05-03 23:30 26.57914 -79.83289 10246 ft 271 kts 202°
2026-05-03 23:30 26.56125 -79.83968 9908 ft 270 kts 201°
2026-05-03 23:31 26.54368 -79.84688 9576 ft 269 kts 205°
2026-05-03 23:31 26.52644 -79.85496 9257 ft 268 kts 205°
2026-05-03 23:31 26.50927 -79.86319 8938 ft 268 kts 205°
2026-05-03 23:31 26.49221 -79.87134 8621 ft 267 kts 205°
2026-05-03 23:32 26.47515 -79.87945 8336 ft 265 kts 205°
2026-05-03 23:32 26.45843 -79.88735 8238 ft 260 kts 205°
2026-05-03 23:32 26.44187 -79.89516 8187 ft 259 kts 205°
2026-05-03 23:32 26.42528 -79.90296 8150 ft 263 kts 205°
2026-05-03 23:33 26.40828 -79.91095 8100 ft 266 kts 205°
2026-05-03 23:33 26.39120 -79.91896 8044 ft 266 kts 205°
2026-05-03 23:33 26.37439 -79.92756 7914 ft 267 kts 210°
2026-05-03 23:33 26.35820 -79.93795 7756 ft 269 kts 212°
2026-05-03 23:34 26.34221 -79.94860 7592 ft 267 kts 212°
2026-05-03 23:34 26.32634 -79.95906 7428 ft 264 kts 212°
2026-05-03 23:34 26.31059 -79.96930 7266 ft 261 kts 211°
2026-05-03 23:34 26.29497 -79.97937 7113 ft 259 kts 211°
2026-05-03 23:35 26.27940 -79.98938 6959 ft 257 kts 211°
2026-05-03 23:35 26.26391 -79.99932 6801 ft 256 kts 211°
2026-05-03 23:35 26.24871 -80.00910 6647 ft 255 kts 211°
2026-05-03 23:35 26.23334 -80.01898 6491 ft 255 kts 211°
2026-05-03 23:36 26.21803 -80.02881 6340 ft 254 kts 211°
2026-05-03 23:36 26.20272 -80.03863 6188 ft 254 kts 211°
2026-05-03 23:36 26.18762 -80.04885 6023 ft 254 kts 220°
2026-05-03 23:36 26.17703 -80.06429 5889 ft 252 kts 244°
2026-05-03 23:37 26.17078 -80.08246 5728 ft 253 kts 251°
2026-05-03 23:37 26.16537 -80.10119 5574 ft 254 kts 251°
2026-05-03 23:37 26.15991 -80.11999 5408 ft 256 kts 251°
2026-05-03 23:37 26.15434 -80.13885 5259 ft 257 kts 251°
2026-05-03 23:38 26.14968 -80.15807 5087 ft 258 kts 264°
2026-05-03 23:38 26.14946 -80.17806 4953 ft 259 kts 270°
2026-05-03 23:38 26.14985 -80.19808 4792 ft 260 kts 270°
2026-05-03 23:38 26.15017 -80.21821 4633 ft 261 kts 270°
2026-05-03 23:39 26.15040 -80.23813 4476 ft 261 kts 270°
2026-05-03 23:39 26.15058 -80.25836 4314 ft 261 kts 270°
2026-05-03 23:39 26.15071 -80.27851 4160 ft 261 kts 270°
2026-05-03 23:39 26.15080 -80.29875 3999 ft 261 kts 270°
2026-05-03 23:40 26.15089 -80.31885 3844 ft 261 kts 270°
2026-05-03 23:40 26.15096 -80.33899 3682 ft 259 kts 270°
2026-05-03 23:40 26.15088 -80.35855 3522 ft 246 kts 269°
2026-05-03 23:40 26.15061 -80.37685 3485 ft 227 kts 269°
2026-05-03 23:41 26.15032 -80.39374 3457 ft 209 kts 269°
2026-05-03 23:41 26.15005 -80.40927 3438 ft 197 kts 269°
2026-05-03 23:41 26.14982 -80.42469 3241 ft 200 kts 270°
2026-05-03 23:41 26.14962 -80.43994 3082 ft 195 kts 270°
2026-05-03 23:42 26.14938 -80.45490 3055 ft 199 kts 270°
2026-05-03 23:42 26.14858 -80.47025 3000 ft 199 kts 257°
2026-05-03 23:42 26.14158 -80.48302 3000 ft 195 kts 218°
2026-05-03 23:42 26.12904 -80.48839 3016 ft 197 kts 186°
2026-05-03 23:43 26.11527 -80.48968 3003 ft 198 kts 183°
2026-05-03 23:43 26.10168 -80.48892 2978 ft 195 kts 159°
2026-05-03 23:43 26.09132 -80.48019 2999 ft 188 kts 121°
2026-05-03 23:43 26.08522 -80.46715 3017 ft 192 kts 113°
2026-05-03 23:44 26.07969 -80.45353 3005 ft 193 kts 109°
2026-05-03 23:44 26.07823 -80.43897 3015 ft 188 kts 85°
2026-05-03 23:44 26.07849 -80.42467 2978 ft 180 kts 89°
2026-05-03 23:44 26.07839 -80.41118 2981 ft 172 kts 89°
2026-05-03 23:45 26.07828 -80.39793 3003 ft 169 kts 89°
2026-05-03 23:45 26.07820 -80.38508 2985 ft 163 kts 89°
2026-05-03 23:45 26.07812 -80.37262 3001 ft 164 kts 89°
2026-05-03 23:45 26.07810 -80.35971 3006 ft 166 kts 89°
2026-05-03 23:46 26.07810 -80.34706 3011 ft 166 kts 89°
2026-05-03 23:46 26.07804 -80.33416 2942 ft 166 kts 89°
2026-05-03 23:46 26.07795 -80.32140 2751 ft 163 kts 89°
2026-05-03 23:46 26.07787 -80.30919 2541 ft 154 kts 89°
2026-05-03 23:47 26.07779 -80.29747 2350 ft 153 kts 89°
2026-05-03 23:47 26.07771 -80.28574 2135 ft 150 kts 88°
2026-05-03 23:47 26.07763 -80.27431 1933 ft 146 kts 88°
2026-05-03 23:47 26.07756 -80.26306 1752 ft 146 kts 88°
2026-05-03 23:48 26.07748 -80.25173 1556 ft 146 kts 88°
2026-05-03 23:48 26.07739 -80.24041 1360 ft 145 kts 88°
2026-05-03 23:48 26.07726 -80.22943 1192 ft 144 kts 89°
2026-05-03 23:48 26.07640 -80.21817 1048 ft 146 kts 102°
2026-05-03 23:49 26.07205 -80.20815 934 ft 147 kts 122°
2026-05-03 23:49 26.06606 -80.19900 888 ft 147 kts 111°
2026-05-03 23:49 26.06541 -80.18775 586 ft 146 kts 78°
2026-05-03 23:49 26.06572 -80.17674 370 ft 144 kts 97°
2026-05-03 23:50 26.06570 -80.16584 205 ft 142 kts 83°
2026-05-03 23:50 26.06584 -80.15864 58 ft 143 kts 88°
2026-05-03 23:50 26.06582 -80.14556 38 ft 101 kts 90°
2026-05-03 23:50 26.06577 -80.13991 73 ft 42 kts 90°
2026-05-03 23:51 26.06620 -80.13793 71 ft 38 kts 54°
2026-05-03 23:51 26.06735 -80.13745 68 ft 13 kts 298°
2026-05-03 23:51 26.06743 -80.13831 69 ft 10 kts 270°
2026-05-03 23:51 26.06743 -80.13907 68 ft 10 kts 269°
2026-05-03 23:52 26.06740 -80.13981 67 ft 10 kts 261°
2026-05-03 23:52 26.06715 -80.14052 72 ft 10 kts 242°
2026-05-03 23:52 26.06692 -80.14108 61 ft 15 kts 248°
2026-05-03 23:52 26.06677 -80.14253 48 ft 23 kts 274°
2026-05-03 23:53 26.06677 -80.14389 47 ft 14 kts 270°
2026-05-03 23:53 26.06677 -80.14469 43 ft 8 kts 270°
2026-05-03 23:53 26.06677 -80.14532 42 ft 9 kts 270°
2026-05-03 23:53 26.06677 -80.14595 38 ft 8 kts 270°
2026-05-03 23:54 26.06677 -80.14670 31 ft 13 kts 270°
2026-05-03 23:54 26.06677 -80.14746 28 ft 12 kts 270°
2026-05-03 23:54 26.06683 -80.14857 18 ft 16 kts 281°
2026-05-03 23:54 26.06694 -80.14956 17 ft 9 kts 270°
2026-05-03 23:55 26.06695 -80.15014 18 ft 7 kts 270°
2026-05-03 23:55 26.06695 -80.15069 18 ft 7 kts 270°
2026-05-03 23:55 26.06709 -80.15119 20 ft 7 kts 314°
2026-05-03 23:55 26.06775 -80.15131 16 ft 14 kts 359°
2026-05-03 23:56 26.06888 -80.15131 17 ft 18 kts
2026-05-03 23:56 26.07012 -80.15129 15 ft 16 kts
2026-05-03 23:56 26.07121 -80.15128 15 ft 15 kts 359°
2026-05-03 23:56 26.07227 -80.15127 15 ft 15 kts
2026-05-03 23:57 26.07317 -80.15089 15 ft 14 kts 45°
2026-05-03 23:57 26.07383 -80.15013 16 ft 12 kts 45°
2026-05-03 23:57 26.07395 -80.14948 15 ft 9 kts 114°
2026-05-03 23:57 26.07388 -80.14883 15 ft 9 kts 66°
2026-05-03 23:58 26.07411 -80.14852 17 ft 2 kts 44°
2026-05-03 23:58 26.07416 -80.14846 15 ft 0 kts 45°
2026-05-03 23:59 26.07431 -80.14828 16 ft 8 kts 45°
2026-05-03 23:59 26.07482 -80.14763 15 ft 13 kts 67°
2026-05-03 23:59 26.07488 -80.14662 15 ft 13 kts 90°
2026-05-04 00:00 26.07487 -80.14569 15 ft 11 kts 90°
2026-05-04 00:00 26.07465 -80.14494 15 ft 10 kts 135°
2026-05-04 00:00 26.07421 -80.14454 15 ft 4 kts 101°
2026-05-04 00:00 26.07431 -80.14426 15 ft 4 kts 65°
2026-05-04 00:01 26.07424 -80.14401 15 ft 4 kts 138°
2026-05-04 00:01 26.07402 -80.14394 15 ft 2 kts 179°
2026-05-04 00:01 26.07397 -80.14394 15 ft 0 kts 179°